TimeEST,TemperatureF,Dew PointF,Humidity,Sea Level PressureIn,VisibilityMPH,Wind Direction,Wind SpeedMPH,Gust SpeedMPH,PrecipitationIn,Events,Conditions,WindDirDegrees,DateUTC
12:54 AM,28.9,12.9,51,30.09,10.0,Variable,3.5,-,N/A,,Overcast,0,2013-01-19 05:54:00
1:54 AM,30.0,14.0,51,30.06,10.0,Variable,4.6,-,N/A,,Overcast,0,2013-01-19 06:54:00
2:54 AM,33.1,14.0,46,30.04,10.0,South,11.5,-,N/A,,Overcast,180,2013-01-19 07:54:00
3:54 AM,34.0,14.0,44,30.01,10.0,South,10.4,17.3,N/A,,Overcast,190,2013-01-19 08:54:00
4:54 AM,36.0,14.0,41,29.99,10.0,SSW,13.8,21.9,N/A,,Overcast,200,2013-01-19 09:54:00
5:54 AM,37.0,16.0,42,29.97,10.0,SSW,15.0,24.2,N/A,,Overcast,200,2013-01-19 10:54:00
6:54 AM,37.0,17.1,44,29.97,10.0,South,10.4,18.4,N/A,,Overcast,190,2013-01-19 11:54:00
7:54 AM,37.0,18.0,46,29.97,10.0,South,9.2,18.4,N/A,,Overcast,190,2013-01-19 12:54:00
8:54 AM,37.9,18.0,45,29.98,10.0,South,11.5,18.4,N/A,,Overcast,190,2013-01-19 13:54:00
9:54 AM,39.0,19.0,45,29.98,10.0,SSW,13.8,21.9,N/A,,Overcast,210,2013-01-19 14:54:00
10:54 AM,39.9,19.0,43,29.97,10.0,South,11.5,18.4,N/A,,Overcast,190,2013-01-19 15:54:00
11:54 AM,41.0,21.0,45,29.95,10.0,SSW,11.5,-,N/A,,Overcast,210,2013-01-19 16:54:00
12:54 PM,41.0,23.0,49,29.94,10.0,SSW,10.4,-,N/A,,Overcast,200,2013-01-19 17:54:00
1:54 PM,43.0,24.1,47,29.92,10.0,SSW,10.4,-,N/A,,Overcast,210,2013-01-19 18:54:00
2:54 PM,43.0,26.1,51,29.91,10.0,SSW,5.8,-,N/A,,Overcast,200,2013-01-19 19:54:00
3:54 PM,43.0,26.1,51,29.88,10.0,SSW,3.5,-,N/A,,Overcast,200,2013-01-19 20:54:00
4:54 PM,42.1,25.0,51,29.86,10.0,Calm,Calm,-,N/A,,Overcast,0,2013-01-19 21:54:00
5:54 PM,39.9,26.1,58,29.83,10.0,Calm,Calm,-,N/A,,Overcast,0,2013-01-19 22:54:00
6:54 PM,43.0,25.0,49,29.80,10.0,ESE,4.6,-,N/A,,Overcast,120,2013-01-19 23:54:00
7:54 PM,43.0,25.0,49,29.76,10.0,Calm,Calm,-,N/A,,Overcast,0,2013-01-20 00:54:00
8:54 PM,42.1,25.0,51,29.73,10.0,SE,3.5,-,N/A,,Overcast,140,2013-01-20 01:54:00
9:54 PM,45.0,23.0,42,29.70,10.0,South,9.2,-,N/A,,Overcast,190,2013-01-20 02:54:00
10:54 PM,46.0,21.9,39,29.67,10.0,South,10.4,-,N/A,,Mostly Cloudy,190,2013-01-20 03:54:00
11:54 PM,45.0,23.0,42,29.64,10.0,South,11.5,-,N/A,,Overcast,180,2013-01-20 04:54:00